CAPE
75 0 0 0 0 0 2 6 0 9 15 35 41 9 10 53 36 35 21 28 18 12 3 1 2 2 1 33 31 1 11 24 2 19 35 50 19 1 1 0 0 0 0
109 0 0 0 0 8 3 20 0 0 1 7 6 3 4 1 4 19 11 9 4 1 1 1 6 11 1 0 0 0 0 0 5 30 13 28 24 0 0 0 0 0 0
179 9 0 0 0 0 28 31 8 0 0 0 0 1 1 1 0 0 0 0 0 0 0 0 1 0 1 0 0 0 0 0 0 7 3 1 19 2 0 0 0 0 0
53 59 28 1 33 17 57 26 2 0 0 1 1 1 0 0 1 0 0 0 0 0 1 0 0 0 0 0 0 0 0 0 0 0 6 2 4 0 0 0 0 0 0
133 42 37 0 45 69 41 15 0 0 0 0 0 0 0 0 0 0 1 1 1 1 1 1 1 2 1 0 0 0 0 0 0 0 0 8 5 0 0 3 0 0 0
241 58 0 32 59 38 31 1 0 0 0 0 0 0 0 0 0 0 0 0 0 0 0 0 0 2 1 1 1 0 0 0 3 0 24 0 0 1 0 0 1 0 0
512 164 59 62 2 1 0 0 0 0 0 0 0 0 0 0 0 0 0 0 0 0 0 0 0 0 0 0 0 0 0 0 0 0 0 0 0 0 0 0 0 0 0
105 395 54 2 0 1 0 0 0 0 0 0 0 0 0 0 0 0 0 0 0 0 0 0 0 0 0 0 0 0 0 0 0 0 0 0 0 0 0 0 0 0 0
321 16 17 0 1 1 0 0 0 0 0 0 0 0 0 0 0 0 0 0 0 0 0 0 0 0 0 0 0 0 0 0 0 0 0 0 0 0 0 0 0 0 0
1 1 0 0 1 0 0 0 0 0 0 0 0 0 0 0 0 0 0 0 0 0 0 0 0 0 0 0 0 0 0 0 0 0 0 0 0 0 0 0 0 0 0
0 0 0 0 0 0 0 0 0 0 0 0 0 0 0 0 0 0 0 0 0 0 0 0 0 0 0 0 0 0 0 0 0 0 0 0 0 0 0 0 0 0 0
1 1 1 1 1 0 0 0 0 0 0 0 0 0 0 0 0 0 0 0 0 0 0 0 0 0 0 0 0 0 0 0 0 0 0 0 0 0 0 0 0 0 0
1 1 1 1 1 1 1 1 1 0 0 1 0 0 1 1 0 0 0 0 0 0 0 0 0 0 0 0 0 0 0 0 0 0 0 0 0 0 0 0 0 0 0
1 1 2 1 1 1 1 0 0 0 0 0 0 1 1 0 0 0 0 0 0 0 0 0 0 0 0 0 0 0 0 0 0 0 0 0 0 0 0 0 0 0 0
0 0 0 0 0 0 0 0 0 0 0 0 0 0 0 0 0 0 0 0 0 0 0 0 0 0 0 0 0 0 0 0 0 0 0 0 0 0 0 0 0 0 0
0 0 0 0 0 0 0 0 0 0 0 0 0 0 0 0 0 0 0 0 0 0 0 0 0 0 0 0 0 0 0 0 0 0 0 0 0 0 0 0 0 0 0
0 0 0 0 0 0 0 0 0 0 0 0 0 0 0 0 0 0 0 0 0 0 0 0 0 0 0 0 0 0 0 0 0 0 0 0 0 0 0 0 0 0 0
0 0 0 0 0 0 0 0 0 0 0 0 0 0 0 0 0 0 0 0 0 0 0 0 0 0 0 0 0 0 0 0 0 0 0 0 0 0 0 0 0 0 0
0 0 0 0 0 0 0 0 0 0 0 0 0 0 0 0 0 0 0 0 0 0 0 0 0 0 0 0 0 0 0 0 0 0 0 0 0 0 0 0 0 0 0
0 0 0 0 0 0 0 0 0 0 0 0 0 0 0 0 0 0 0 0 0 0 0 0 0 0 0 0 0 0 0 0 0 0 0 0 0 0 0 0 0 0 0
0 0 0 0 0 0 0 0 0 0 0 0 0 0 0 0 0 0 0 0 0 0 0 0 0 0 0 0 0 0 0 0 0 0 0 0 0 0 0 0 0 0 0
0 0 0 0 0 0 0 0 0 0 0 0 0 0 0 0 0 0 0 0 0 0 0 0 0 0 0 0 0 0 0 0 0 0 0 0 0 0 0 0 0 0 0
0 0 0 0 0 0 0 0 0 0 0 0 0 0 0 0 0 0 0 0 0 0 0 0 0 0 0 0 0 0 0 0 0 0 0 0 0 0 0 0 0 0 0
0 0 0 0 0 0 0 0 0 0 0 0 0 0 0 0 0 0 0 0 0 0 0 0 0 0 0 0 0 0 0 0 0 0 0 0 0 0 0 0 0 0 0
0 0 0 0 0 0 0 0 0 0 0 0 0 0 0 0 0 0 0 0 0 0 0 0 0 0 0 0 0 0 0 0 0 0 0 0 0 0 0 0 0 0 0
0 0 0 0 0 0 0 0 0 0 0 0 0 0 0 0 0 0 0 0 0 0 0 0 0 0 0 0 0 0 0 0 0 0 0 0 0 0 0 0 0 0 0
CIN
-263 -0 -0 -0 -0 -0 -88 -102 -0 -60 -112 -82 -71 -113 -26 -73 -86 -81 -95 -108 -101 -116 -86 -73 -0 -0 -33 -47 -18 -72 -81 -87 -60 -129 -171 -200 -216 -0 -0 -0 -0 -0 -0
-255 -0 -0 -0 -0 -83 -72 -167 -0 -0 -76 -86 -93 -138 -172 -0 -98 -81 -92 -106 -60 -2 -77 -19 -49 -70 -3 -0 -0 -0 -0 -0 -75 -74 -119 -122 -129 -14 -0 -0 -0 -0 -0
-217 -198 -0 -0 -0 -0 -132 -173 -179 -0 -0 -0 -21 -0 -0 -0 -0 -0 -0 -0 -0 -0 -0 -0 -0 -0 -0 -0 -0 -0 -0 -0 -0 -82 -77 -37 -63 -22 -0 -0 -0 -0 -0
-294 -253 -246 -15 -180 -109 -120 -149 -84 -0 -0 -0 -0 -105 -0 -0 -0 -0 -0 -0 -0 -0 -0 -0 -0 -0 -0 -0 -0 -0 -0 -0 -0 -0 -54 -36 -41 -0 -0 -0 -0 -0 -0
-229 -223 -175 -0 -166 -109 -100 -106 -0 -0 -0 -0 -0 -0 -0 -0 -0 -0 -0 -0 -0 -0 -0 -0 -0 -0 -0 -0 -0 -0 -0 -0 -0 -0 -24 -53 -18 -1 -0 -0 -0 -0 -0
-193 -191 -0 -214 -133 -130 -92 -6 -0 -0 -0 -0 -0 -0 -0 -0 -0 -0 -0 -0 -0 -0 -0 -0 -0 -0 -0 -0 -0 -0 -0 -0 -57 -10 -25 -0 -0 -0 -0 -0 -0 -0 -0
-79 -133 -179 -151 -55 -99 -0 -0 -0 -0 -0 -0 -0 -0 -0 -0 -0 -0 -0 -0 -0 -0 -0 -0 -0 -0 -0 -0 -0 -0 -0 -0 -0 -0 -0 -0 -0 -0 -0 -0 -0 -0 -0
-135 -64 -105 -118 -0 -40 -0 -0 -0 -0 -0 -0 -0 -0 -0 -0 -0 -0 -0 -0 -0 -0 -0 -0 -0 -0 -0 -0 -0 -0 -0 -0 -0 -0 -0 -0 -0 -0 -0 -0 -0 -0 -0
-89 -209 -209 -14 -0 -0 -0 -0 -0 -0 -0 -0 -0 -0 -0 -0 -0 -0 -0 -0 -0 -0 -0 -0 -0 -0 -0 -0 -0 -0 -0 -0 -0 -0 -0 -0 -0 -0 -0 -0 -0 -0 -0
-0 -0 -0 -0 -0 -0 -0 -0 -0 -0 -0 -0 -0 -0 -0 -0 -0 -0 -0 -0 -0 -0 -0 -0 -0 -0 -0 -0 -0 -0 -0 -0 -0 -0 -0 -0 -0 -0 -0 -0 -0 -0 -0
-0 -0 -0 -0 -0 -0 -0 -0 -0 -0 -0 -0 -0 -0 -0 -0 -0 -0 -0 -0 -0 -0 -0 -0 -0 -0 -0 -0 -0 -0 -0 -0 -0 -0 -0 -0 -0 -0 -0 -0 -0 -0 -0
-0 -0 -0 -0 -0 -0 -0 -0 -0 -0 -0 -0 -0 -0 -0 -0 -0 -0 -0 -0 -0 -0 -0 -0 -0 -0 -0 -0 -0 -0 -0 -0 -0 -0 -0 -0 -0 -0 -0 -0 -0 -0 -0
-0 -0 -0 -0 -0 -0 -0 -0 -0 -0 -0 -0 -0 -0 -0 -0 -0 -0 -0 -0 -0 -0 -0 -0 -0 -0 -0 -0 -0 -0 -0 -0 -0 -0 -0 -0 -0 -0 -0 -0 -0 -0 -0
-0 -0 -0 -0 -0 -0 -1 -0 -0 -0 -0 -0 -0 -0 -0 -0 -0 -0 -0 -0 -0 -0 -0 -0 -0 -0 -0 -0 -0 -0 -0 -0 -0 -0 -0 -0 -0 -0 -0 -0 -0 -0 -0
-0 -0 -0 -0 -0 -0 -0 -0 -0 -0 -0 -0 -0 -0 -0 -0 -0 -0 -0 -0 -0 -0 -0 -0 -0 -0 -0 -0 -0 -0 -0 -0 -0 -0 -0 -0 -0 -0 -0 -0 -0 -0 -0
-0 -0 -0 -0 -0 -0 -0 -0 -0 -0 -0 -0 -0 -0 -0 -0 -0 -0 -0 -0 -0 -0 -0 -0 -0 -0 -0 -0 -0 -0 -0 -0 -0 -0 -0 -0 -0 -0 -0 -0 -0 -0 -0
-0 -0 -0 -0 -0 -0 -0 -0 -0 -0 -0 -0 -0 -0 -0 -0 -0 -0 -0 -0 -0 -0 -0 -0 -0 -0 -0 -0 -0 -0 -0 -0 -0 -0 -0 -0 -0 -0 -0 -0 -0 -0 -0
-0 -0 -0 -0 -0 -0 -0 -0 -0 -0 -0 -0 -0 -0 -0 -0 -0 -0 -0 -0 -0 -0 -0 -0 -0 -0 -0 -0 -0 -0 -0 -0 -0 -0 -0 -0 -0 -0 -0 -0 -0 -0 -0
-0 -0 -0 -0 -0 -0 -0 -0 -0 -0 -0 -0 -0 -0 -0 -0 -0 -0 -0 -0 -0 -0 -0 -0 -0 -0 -0 -0 -0 -0 -0 -0 -0 -0 -0 -0 -0 -0 -0 -0 -0 -0 -0
-0 -0 -0 -0 -0 -0 -0 -0 -0 -0 -0 -0 -0 -0 -0 -0 -0 -0 -0 -0 -0 -0 -0 -0 -0 -0 -0 -0 -0 -0 -0 -0 -0 -0 -0 -0 -0 -0 -0 -0 -0 -0 -0
-0 -0 -0 -0 -0 -0 -0 -0 -0 -0 -0 -0 -0 -0 -0 -0 -0 -0 -0 -0 -0 -0 -0 -0 -0 -0 -0 -0 -0 -0 -0 -0 -0 -0 -0 -0 -0 -0 -0 -0 -0 -0 -0
-0 -0 -0 -0 -0 -0 -0 -0 -0 -0 -0 -0 -0 -0 -0 -0 -0 -0 -0 -0 -0 -0 -0 -0 -0 -0 -0 -0 -0 -0 -0 -0 -0 -0 -0 -0 -0 -0 -0 -0 -0 -0 -0
-0 -0 -0 -0 -0 -0 -0 -0 -0 -0 -0 -0 -0 -0 -0 -0 -0 -0 -0 -0 -0 -0 -0 -0 -0 -0 -0 -0 -0 -0 -0 -0 -0 -0 -0 -0 -0 -0 -0 -0 -0 -0 -0
-0 -0 -0 -0 -0 -0 -0 -0 -0 -0 -0 -0 -0 -0 -0 -0 -0 -0 -0 -0 -0 -0 -0 -0 -0 -0 -0 -0 -0 -0 -0 -0 -0 -0 -0 -0 -0 -0 -0 -0 -0 -0 -0
-0 -0 -0 -0 -0 -0 -0 -0 -0 -0 -0 -0 -0 -0 -0 -0 -0 -0 -0 -0 -0 -0 -0 -0 -0 -0 -0 -0 -0 -0 -0 -0 -0 -0 -0 -0 -0 -0 -0 -0 -0 -0 -0
-0 -0 -0 -0 -0 -0 -0 -0 -0 -0 -0 -0 -0 -0 -0 -0 -0 -0 -0 -0 -0 -0 -0 -0 -0 -0 -0 -0 -0 -0 -0 -0 -0 -0 -0 -0 -0 -0 -0 -0 -0 -0 -0
Wind_Speed
5 5 5 3 4 4 5 5 5 5 5 6 7 5 1 4 4 4 4 4 8 9 6 7 8 5 4 4 1 2 2 1 4 3 1 3 5 5 6 8 6 4 4
6 5 5 4 3 5 5 5 5 6 6 7 6 8 8 7 6 8 9 7 7 7 6 6 7 5 5 3 4 5 5 5 2 2 3 3 4 4 6 5 4 2 4
6 6 5 3 3 4 5 5 6 6 6 7 8 9 9 9 10 10 10 9 9 9 8 7 8 8 5 4 5 5 4 3 3 2 3 2 2 1 4 4 4 2 5
6 6 6 5 4 4 5 5 6 6 7 7 8 8 9 9 10 10 11 10 9 8 7 7 6 5 6 6 4 4 3 4 4 4 3 2 3 3 3 3 3 3 3
7 6 5 3 5 6 6 6 5 6 6 7 8 8 7 7 5 7 7 6 6 7 6 5 6 10 12 7 4 2 4 3 3 3 2 2 2 2 2 2 2 2 2
7 7 6 6 6 6 7 6 6 6 8 9 8 7 7 6 8 11 8 7 7 6 6 5 5 11 13 15 14 12 4 3 3 3 2 2 2 2 2 2 4 3 2
4 5 7 8 7 8 9 9 8 8 8 9 7 6 6 5 8 12 13 7 7 6 5 4 6 6 7 7 11 13 14 16 9 4 6 3 3 2 2 3 3 3 1
4 6 5 8 10 10 11 10 8 8 8 6 7 6 5 5 16 15 16 9 9 8 7 6 4 5 5 7 9 11 10 10 11 9 9 4 3 2 3 3 4 5 3
2 6 7 11 11 10 11 10 8 9 8 7 6 8 7 8 9 14 12 10 11 10 9 10 7 7 8 7 9 9 8 8 9 13 13 13 16 16 10 2 5 4 4
6 6 9 11 12 12 11 10 9 9 8 7 9 9 13 8 9 11 11 7 10 8 9 11 20 13 16 12 9 6 8 5 5 6 5 9 9 11 13 8 3 4 2
6 8 10 10 12 11 11 9 9 9 9 9 9 9 10 10 10 13 11 9 7 7 7 7 6 15 14 14 11 8 4 2 5 4 4 4 3 3 3 3 3 4 3
9 10 10 10 8 9 12 9 9 9 10 7 8 8 7 9 13 14 15 14 11 8 6 4 5 11 11 11 8 8 9 7 6 6 4 3 3 3 2 2 2 1 1
12 12 11 12 9 10 8 9 8 7 7 5 6 6 6 5 7 13 13 14 11 8 4 7 9 8 8 6 10 10 8 5 5 5 4 3 2 2 4 3 4 5 2
12 11 10 10 9 10 5 6 6 5 5 6 6 5 5 4 5 4 5 5 10 7 6 4 5 6 8 6 6 6 5 4 4 3 3 2 3 4 4 3 3 4 3
11 9 9 9 9 9 7 6 6 4 3 6 4 4 4 4 2 3 3 4 3 3 4 3 3 4 3 3 4 5 5 5 5 3 3 3 4 3 4 4 3 3 3
9 8 7 7 6 6 7 7 14 8 10 10 9 5 3 5 6 6 7 5 4 4 4 3 2 2 3 3 2 3 3 4 3 3 3 3 3 3 3 4 3 3 3
10 8 7 7 5 5 4 6 7 7 12 10 7 7 6 7 7 7 6 4 4 5 3 2 2 3 1 3 4 3 2 1 2 4 3 3 3 3 5 4 3 2 3
6 9 6 5 5 4 4 5 4 6 5 2 4 3 5 6 6 6 6 5 3 4 2 3 3 5 3 3 2 2 1 2 3 4 4 3 3 3 3 3 3 3 2
6 4 5 4 4 4 4 4 3 4 4 4 1 2 0 0 3 6 6 3 2 2 2 2 3 4 3 3 3 2 1 2 2 3 3 3 3 3 3 3 3 5 5
4 9 6 4 5 5 4 4 4 4 4 4 4 4 2 2 1 1 2 2 3 3 3 3 2 2 3 3 2 2 2 3 3 3 2 3 3 2 2 3 3 3 3
5 4 9 5 6 7 7 7 5 5 4 4 5 4 7 3 2 1 2 3 4 4 4 2 1 4 4 3 3 3 3 4 3 3 2 2 2 3 2 2 3 3 1
3 5 6 8 6 6 6 6 8 7 5 5 4 2 8 2 3 4 4 4 4 4 3 4 2 4 4 3 3 4 5 5 3 3 2 2 1 2 2 2 3 3 1
4 5 5 4 6 7 6 6 6 7 5 5 4 4 4 4 5 5 5 5 4 4 3 4 5 5 2 2 3 4 6 5 5 4 3 0 0 2 2 2 3 2 2
3 2 7 6 4 4 5 5 5 8 7 6 6 5 5 5 5 6 6 5 5 3 3 5 4 6 5 4 3 4 4 4 3 2 3 2 1 2 1 2 1 2 2
5 4 4 5 6 5 5 5 5 5 5 9 6 5 5 5 6 6 6 5 4 4 5 5 5 7 8 8 6 6 5 6 4 4 2 2 2 2 2 1 3 3 2
5 5 2 4 3 4 4 5 5 6 6 5 6 6 7 7 7 6 6 5 5 5 6 5 6 9 9 8 8 9 7 6 5 5 4 3 1 1 2 4 6 3 4
Wind_Direction
148 131 134 123 101 76 60 38 40 31 20 35 52 42 87 209 170 117 97 122 123 119 116 116 110 102 84 74 118 66 341 98 222 291 274 36 53 72 81 67 41 42 48
156 148 162 146 131 89 68 62 55 38 37 51 41 62 48 59 80 105 92 79 97 105 132 130 136 128 112 113 86 63 41 346 278 254 358 26 73 56 83 76 83 20 88
155 162 180 173 140 104 91 70 63 60 49 46 52 48 58 61 71 71 85 87 86 87 95 108 114 126 121 101 83 77 57 18 338 107 39 340 99 79 82 94 92 62 76
158 179 183 190 177 140 107 91 75 68 71 65 56 57 62 70 78 85 86 83 80 76 81 81 90 108 122 119 99 91 77 61 25 41 64 47 53 54 82 112 70 61 58
158 154 169 155 130 122 101 94 87 79 76 74 72 62 62 66 69 79 85 95 98 90 70 69 84 93 90 97 112 106 125 128 114 78 37 49 54 53 108 99 99 73 50
167 161 145 132 120 109 98 93 88 68 67 67 56 65 56 65 88 96 95 93 86 86 87 73 69 83 80 83 81 77 77 163 168 159 168 114 52 65 30 131 128 139 130
214 165 150 140 115 103 101 87 77 72 68 63 54 57 62 59 78 88 82 73 77 77 75 90 99 91 88 87 73 64 56 55 56 109 109 80 79 25 60 52 58 73 77
226 166 141 119 118 112 104 96 80 74 66 60 56 41 49 33 103 95 89 83 73 57 46 41 81 95 92 90 84 70 53 47 59 76 70 47 76 110 130 154 178 146 155
324 124 119 124 118 113 104 97 87 83 67 57 42 40 43 65 79 97 94 86 75 53 42 38 54 77 66 51 83 76 65 53 44 62 76 73 57 51 41 57 36 69 42
38 85 105 118 115 111 103 96 91 86 79 68 55 45 42 58 31 81 88 83 81 75 53 50 57 71 65 59 71 62 62 29 39 42 31 46 53 52 49 56 54 69 44
57 63 76 83 101 101 99 93 96 93 90 74 69 56 54 46 54 69 82 91 93 87 75 59 47 60 66 59 57 62 45 22 45 66 62 87 68 68 72 82 115 125 121
67 70 71 76 83 91 100 91 92 98 93 84 83 67 47 53 53 69 75 78 87 91 82 69 65 60 57 63 58 55 47 42 53 52 64 36 40 15 4 245 270 302 119
78 75 76 76 78 78 84 99 92 90 95 90 85 85 70 52 64 59 75 88 88 91 91 102 81 52 48 51 46 49 46 49 58 58 45 27 19 344 9 20 360 10 23
87 84 79 81 79 79 68 82 86 86 97 99 92 88 85 79 72 58 63 60 69 71 69 44 40 42 50 57 49 42 52 55 74 70 55 8 357 17 20 357 5 354 26
80 78 81 82 84 81 62 59 73 41 100 112 103 116 116 104 88 62 90 82 87 99 76 41 38 39 46 45 40 43 33 44 48 32 38 32 23 18 355 345 14 14 63
103 98 96 97 86 84 92 73 46 62 74 83 93 108 51 108 116 110 93 83 87 99 69 96 89 90 82 66 59 39 31 51 37 54 42 40 31 20 357 356 21 52 54
116 115 111 109 119 123 117 120 108 37 56 62 88 111 118 147 116 85 46 45 98 83 100 101 95 81 84 93 100 89 80 34 66 53 61 48 23 22 25 10 1 12 348
112 119 130 141 145 138 129 121 126 131 124 92 20 116 112 99 79 65 20 84 54 48 94 126 122 130 126 117 110 89 103 46 61 68 59 42 32 36 14 10 4 337 331
145 149 147 133 115 108 105 109 115 122 133 139 113 19 245 93 11 28 51 95 123 116 123 142 159 146 136 133 125 96 11 74 101 86 53 53 29 31 11 4 350 4 10
166 158 146 152 154 144 158 161 155 150 160 164 168 188 171 110 70 55 46 78 97 105 143 165 183 122 160 143 121 89 45 117 123 106 86 69 41 40 28 350 11 358 347
179 195 188 185 187 182 176 186 177 177 189 186 200 197 178 141 208 254 148 147 150 135 143 134 149 177 162 153 156 107 105 118 122 133 132 78 38 14 5 327 332 351 339
198 188 182 181 168 179 173 172 180 185 194 190 206 207 185 183 206 154 156 172 164 154 163 122 132 158 163 177 194 131 150 157 170 161 113 60 46 355 349 0 347 346 359
216 170 161 155 162 158 148 145 155 170 186 191 187 181 174 187 174 167 171 168 172 184 153 119 127 125 166 181 191 170 161 172 179 172 174 121 15 3 27 348 322 346 356
87 128 160 159 161 160 158 168 162 173 184 187 191 185 178 175 172 171 168 173 183 189 139 149 146 145 137 132 116 121 140 143 154 178 155 157 193 343 329 331 344 303 305
55 52 172 173 181 188 179 189 185 192 186 182 186 182 190 175 173 182 178 186 160 153 162 154 164 155 155 151 153 154 160 156 162 163 142 153 195 321 334 310 290 297 316
24 7 184 170 188 200 206 200 203 189 191 183 189 186 177 182 190 180 183 177 172 164 159 172 177 169 168 166 175 178 180 175 174 165 148 151 150 281 311 306 301 289 303